Temp_Advection
nan nan nan nan nan nan nan nan nan nan nan nan nan nan nan nan nan nan nan nan nan nan nan nan nan nan nan nan nan nan nan nan nan nan nan nan nan nan nan nan nan nan nan nan
nan -0 -0 0 0 -0 -0 -0 -0 0 0 -0 -0 -0 0 -0 0 0 0 -0 -0 -0 -0 -0 0 -0 1 1 0 -0 0 0 0 0 -0 -0 0 0 -0 0 -0 -0 0 nan
nan -0 -0 0 -0 -0 -0 -0 0 -0 -0 -0 -0 -0 0 -0 0 -0 -0 -0 -0 0 -0 -0 0 -0 0 0 0 0 0 -0 -0 -0 -0 -0 0 0 -0 -0 0 0 0 nan
nan 0 0 0 -0 -0 -0 0 0 -0 -0 -0 0 -0 -0 0 0 -0 -0 0 0 0 0 -0 -0 -0 -0 -0 0 0 -0 0 -0 -0 -0 0 0 0 0 0 0 0 0 nan
nan 0 -0 -0 -0 -0 -0 0 -0 -0 -0 -0 -0 -0 -0 -0 0 -0 0 0 0 0 0 -0 -0 0 -0 0 -0 -0 0 0 0 0 -0 -0 -0 0 -0 -0 -0 0 0 nan
nan -0 -0 -0 -0 0 0 -0 -0 -0 0 0 -0 -0 -0 0 -0 -0 -0 0 0 0 0 -0 -0 0 0 0 -0 0 0 -0 0 0 0 0 0 0 -0 0 -0 -0 0 nan
nan -0 -0 0 -0 -0 -0 -0 0 0 0 0 -0 -0 -0 -0 0 0 0 -0 0 0 -0 -0 -0 -0 0 -0 -0 0 0 0 0 0 0 -0 -0 -0 -0 -0 -0 -0 -0 nan
nan 0 -0 -0 -0 -0 -0 0 0 0 -0 0 -0 -0 -0 0 0 0 0 0 -0 -0 -0 0 -0 -0 -0 -0 -0 -0 -0 -0 -0 0 -0 -0 -0 -0 -0 -0 -0 -0 -0 nan
nan 0 0 0 -0 0 0 -0 -0 0 0 -0 -0 -0 -0 0 0 0 0 -0 0 0 0 0 0 -0 -0 -0 -0 -0 -0 -0 -0 0 -0 -0 -0 -0 -0 -0 -0 0 0 nan
nan -0 0 -0 0 0 -0 -0 0 0 1 -0 0 -0 -0 -0 -0 -0 -0 -0 -0 0 0 0 0 -0 -0 -0 -0 -0 -0 0 0 0 -0 -0 -0 -0 -0 -0 0 -0 0 nan
nan 0 0 -0 -0 -0 -0 0 -0 -0 0 0 -0 -0 -0 0 -0 -0 -1 -0 -0 -0 -0 -0 -0 -0 -0 0 -0 0 0 0 0 0 0 -0 -0 -0 -0 0 -0 -0 -0 nan
nan 0 -0 -0 0 -0 0 0 0 0 0 -0 -0 -1 0 0 0 0 -0 -0 -0 0 0 0 0 0 0 -0 0 -0 0 0 -0 0 0 -0 -0 -0 0 0 0 0 -0 nan
nan 0 0 -0 0 -0 -0 -0 0 0 0 -0 -0 -0 0 0 0 -0 0 -0 0 0 0 -0 0 0 -0 -0 0 -0 -0 -0 -0 0 0 0 0 0 0 0 0 0 -0 nan
nan 0 -0 -0 0 -0 -0 -0 0 0 -0 -0 -0 -0 -0 0 0 -0 0 -0 0 0 -0 -0 -0 0 0 0 -0 -0 -0 -0 -0 -0 -0 -0 -0 0 0 0 -0 -0 -0 nan
nan -0 -0 -0 -0 -0 -0 0 0 -0 -0 -0 -0 -0 -0 -0 -1 -0 0 -0 -0 -0 -0 -0 -0 -0 -0 -0 -0 -0 -0 -0 -0 -0 -0 -0 -0 -0 0 -0 -0 -0 -0 nan
nan -0 -0 -0 0 0 0 -0 -0 -0 -0 -0 -0 0 -1 -0 -0 -0 0 -0 -1 -0 0 0 0 -0 -0 -0 0 -0 -0 0 0 -0 -0 0 -0 -0 -0 -0 -0 -0 -0 nan
nan -0 -0 -0 0 0 -0 -1 -0 -0 0 0 -0 0 -0 -0 -1 -0 0 -0 -0 0 0 1 0 0 1 1 0 0 0 0 0 0 0 0 0 -0 -0 0 0 0 0 nan
nan -0 -0 -0 0 -0 -0 -0 -0 -0 -0 0 0 -0 -0 -0 -0 -0 0 0 1 1 1 1 1 1 1 0 -0 -0 -0 0 0 0 0 0 0 -0 -0 0 0 0 0 nan
nan -0 -0 -0 -0 -0 0 0 0 0 -0 0 0 0 0 -0 -1 -0 0 1 1 1 1 1 0 0 -0 -1 -0 -0 0 0 -0 -0 0 0 0 -0 0 0 0 0 0 nan
nan -0 -1 0 0 -1 -0 -1 -0 -0 -0 1 0 -0 0 -0 0 -1 -1 1 1 1 1 0 -0 -1 -1 -0 0 0 0 0 -0 0 1 0 0 0 0 0 0 0 0 nan
nan -0 -0 -0 -0 -0 -0 -0 -0 -0 0 -1 -0 -1 -1 0 -2 0 0 1 1 1 0 1 1 0 0 0 0 0 0 0 0 0 0 1 1 0 0 0 0 1 0 nan
nan -0 -0 -0 0 1 1 0 0 -1 -0 -0 -1 -1 -1 -1 -0 0 -0 0 1 1 1 1 1 1 1 0 0 -0 0 0 0 0 0 1 0 0 0 0 1 0 0 nan
nan -0 -0 0 1 -1 0 -0 -0 -0 -0 -1 -0 -0 -0 -1 -0 -0 0 0 0 0 0 0 0 0 0 0 0 0 0 0 0 0 0 0 0 0 0 1 1 0 1 nan
nan -0 -0 0 0 -0 -0 -0 -0 -0 -0 -0 -0 0 0 -0 -0 -0 -0 -0 0 0 0 0 0 0 0 0 1 1 1 0 0 0 0 0 0 0 0 1 0 0 1 nan
nan 0 -0 0 -0 0 0 -0 -0 -0 -0 -0 -0 0 0 0 -0 -0 -0 0 0 0 0 0 1 1 1 0 0 0 0 0 0 0 0 0 0 0 0 0 0 0 0 nan
nan nan nan nan nan nan nan nan nan nan nan nan nan nan nan nan nan nan nan nan nan nan nan nan nan nan nan nan nan nan nan nan nan nan nan nan nan nan nan nan nan nan nan nan
Wind_Speed
7 7 7 1 1 3 2 5 6 4 2 8 3 7 3 4 6 7 10 14 15 14 12 10 9 11 15 18 18 19 17 18 18 14 11 8 7 8 10 10 14 16 19 20
7 9 2 3 3 5 6 6 6 1 2 7 7 8 4 6 6 7 10 14 16 17 15 12 10 12 14 13 11 15 16 13 14 12 9 7 5 5 10 13 15 17 18 19
10 8 1 10 8 8 9 9 2 6 5 8 7 14 6 7 5 8 11 11 18 19 16 13 10 12 13 12 11 11 9 12 14 11 7 4 6 6 7 9 10 12 13 14
8 7 4 9 8 8 8 3 4 6 7 7 1 9 6 3 4 8 10 15 17 19 15 13 10 10 13 12 10 11 13 13 11 9 6 3 2 3 7 8 9 12 11 12
5 7 12 11 8 8 3 1 4 6 9 7 9 7 4 4 6 3 2 9 14 16 17 14 12 13 10 12 16 13 14 12 9 7 3 2 3 5 6 8 11 12 12 13
9 2 5 8 6 11 4 7 7 6 8 10 3 6 7 3 4 2 1 0 10 15 15 13 11 12 12 13 19 11 11 10 8 6 2 5 5 5 5 8 8 10 11 10
12 13 7 8 10 10 9 9 8 7 7 7 3 6 9 5 3 4 5 3 8 14 15 14 12 12 16 14 17 13 10 6 7 5 4 4 4 5 7 9 10 12 12 12
8 8 13 13 17 11 13 15 10 6 7 2 4 5 2 2 5 5 4 1 8 13 13 13 11 11 13 17 13 10 12 8 7 2 3 3 3 5 7 9 11 11 13 12
6 4 6 5 4 14 8 10 14 11 8 8 8 4 11 6 9 7 1 5 8 11 11 11 8 11 12 14 13 11 11 7 4 1 2 1 3 5 8 8 9 10 12 13
2 4 5 6 6 5 8 4 8 9 12 9 5 5 4 1 3 5 5 7 10 10 10 11 11 11 12 14 13 12 9 6 3 3 2 2 3 6 7 7 9 11 12 11
9 7 9 6 10 10 7 9 9 7 4 8 6 7 6 1 4 3 7 11 13 13 12 12 13 14 14 15 14 12 8 5 7 6 3 2 2 4 5 7 9 10 12 11
13 7 10 11 7 4 5 8 9 9 12 8 8 10 5 2 3 0 10 14 15 12 12 14 15 15 14 14 13 12 11 11 9 6 4 4 2 2 5 6 8 9 10 10
10 7 9 9 8 7 11 12 11 9 6 10 9 4 3 2 4 4 11 16 15 15 15 16 16 16 15 14 12 11 12 10 9 8 6 5 4 3 5 6 7 7 8 9
8 5 10 9 8 2 14 14 13 14 11 11 10 8 6 3 4 7 12 19 18 16 17 17 17 16 17 14 12 13 10 8 8 8 7 6 4 3 3 5 5 5 6 7
7 7 9 9 6 7 10 7 12 15 18 6 7 3 4 6 7 6 11 17 18 17 18 20 19 19 16 13 14 12 9 10 9 8 6 5 4 3 1 4 3 4 3 5
4 5 5 10 5 6 9 11 10 14 12 9 11 9 8 4 5 4 10 20 22 18 19 22 21 18 16 14 12 11 9 8 8 7 7 6 6 4 1 1 1 2 1 2
4 5 7 12 5 7 10 12 11 14 13 12 13 4 5 4 6 3 6 15 18 19 19 21 20 17 16 15 13 11 10 8 8 7 9 9 8 7 4 3 3 3 3 1
5 6 6 10 5 13 4 2 6 9 8 8 8 2 5 4 5 4 2 12 14 16 20 19 18 17 15 13 14 14 10 10 10 10 11 11 10 14 10 7 6 6 6 4
13 6 8 9 11 13 6 4 6 8 13 8 7 2 1 1 5 3 4 8 11 13 16 18 18 17 15 16 15 14 14 11 9 9 13 14 14 20 15 12 10 8 8 6
12 10 8 7 14 18 13 9 2 3 11 9 3 4 5 4 8 4 8 12 15 19 21 21 20 18 16 14 12 12 10 11 12 13 17 18 18 24 17 17 14 11 10 9
13 11 14 12 12 9 7 4 4 10 1 4 5 4 4 5 6 4 8 10 12 13 15 16 16 13 12 11 10 6 7 8 8 9 10 13 17 20 19 19 17 15 12 10
13 12 12 13 14 15 7 6 7 5 2 5 5 6 4 4 6 7 7 7 9 11 12 10 10 12 11 10 8 7 7 6 7 7 7 8 11 14 17 20 20 17 14 13
7 4 6 7 8 6 3 2 2 3 3 6 5 5 4 7 5 5 6 6 7 9 11 11 9 10 9 8 9 9 6 6 5 2 1 4 7 12 17 19 20 17 16 15
4 2 6 2 7 3 2 1 1 2 2 3 2 1 3 3 3 4 5 7 9 7 9 7 6 7 8 8 8 7 7 6 5 5 3 3 3 6 9 12 12 10 12 10
5 2 4 6 4 3 3 2 2 2 3 2 2 3 5 3 6 7 8 6 4 7 6 5 7 8 8 8 7 7 7 7 7 6 4 5 5 5 6 8 9 7 8 8
1 3 5 1 8 5 7 4 2 2 2 3 5 4 3 6 7 7 7 5 4 6 8 11 10 9 9 9 9 10 10 10 9 9 9 9 11 11 10 7 8 9 8 7
Wind_Direction
198 230 215 23 312 314 300 271 272 232 360 310 329 306 306 211 220 197 179 183 193 195 189 188 197 211 213 207 207 207 204 204 192 200 213 232 247 259 268 260 272 272 269 265
198 226 60 185 183 234 245 262 241 239 243 290 301 292 275 206 229 218 195 189 202 197 194 196 214 216 209 205 202 209 217 224 200 198 209 220 255 274 287 283 282 275 270 262
249 82 306 206 197 223 227 254 273 307 304 250 274 256 212 163 204 213 219 207 205 206 198 193 193 204 190 175 186 208 202 204 196 203 217 262 292 303 319 304 302 291 286 272
249 235 193 190 205 229 227 185 247 274 269 277 280 292 189 246 235 210 219 209 208 204 197 189 185 190 193 194 187 187 178 189 191 194 210 238 283 325 322 327 313 316 302 293
113 191 206 210 213 213 96 182 284 276 255 290 210 263 256 176 264 51 200 214 209 204 197 188 186 179 172 175 183 182 201 200 189 183 181 78 59 12 0 352 348 333 324 325
266 140 216 220 197 204 139 242 231 245 265 251 264 268 280 303 354 7 94 265 200 196 193 187 179 181 189 172 179 173 165 168 168 161 89 51 34 8 16 4 7 353 335 318
215 223 199 219 194 194 232 234 240 227 211 256 83 252 275 323 282 292 299 15 183 182 190 186 184 184 180 175 181 186 178 176 149 127 49 44 43 28 14 13 358 2 341 335
212 183 199 204 227 223 217 237 260 274 269 218 148 252 261 327 270 275 284 262 163 172 184 188 185 178 178 176 174 170 172 163 148 118 46 54 61 22 18 356 359 346 347 339
193 208 156 196 217 222 183 230 248 268 247 273 268 220 261 238 260 252 185 116 153 164 170 181 178 170 165 166 170 158 154 158 173 275 88 92 16 357 1 3 6 349 351 348
112 234 170 128 176 196 258 174 203 228 262 261 195 256 289 356 256 150 126 149 146 162 168 175 173 164 154 154 152 154 165 164 169 134 119 119 4 360 8 8 7 6 1 356
221 253 147 195 205 175 185 216 239 298 305 292 247 216 118 319 329 342 144 158 152 152 158 166 162 157 152 153 160 157 161 163 155 151 154 137 37 17 21 19 16 13 8 15
207 235 242 239 118 276 270 270 225 239 201 237 294 293 140 244 321 156 158 159 160 152 152 158 157 156 154 156 156 154 153 160 164 165 167 135 108 60 19 22 21 16 16 25
165 217 221 210 189 198 229 217 230 243 290 272 278 271 122 247 254 155 164 158 159 155 149 154 156 160 161 155 162 162 154 165 162 168 155 165 135 75 20 9 20 22 25 33
212 216 251 277 1 164 198 227 215 222 243 240 233 292 294 240 273 154 179 164 164 160 156 159 160 165 160 153 169 168 150 149 168 165 164 171 147 103 17 360 28 30 29 49
211 238 225 257 267 254 273 218 205 217 236 266 300 219 299 34 15 339 181 164 164 158 168 173 170 169 171 174 170 162 150 165 173 168 173 178 162 150 13 14 39 42 31 56
189 247 241 254 207 235 239 240 232 207 238 263 272 270 52 33 33 34 171 176 175 173 173 174 174 178 175 179 175 164 166 170 186 175 187 201 185 192 230 36 60 50 61 62
240 243 230 248 178 231 240 244 237 238 241 251 256 256 27 4 24 42 190 190 190 182 182 178 178 175 179 172 174 176 182 188 201 203 208 207 206 211 229 224 189 180 201 138
285 234 250 257 190 234 258 27 290 269 252 249 267 350 4 8 79 60 170 188 191 182 174 176 175 171 169 170 175 188 192 203 208 217 225 226 217 236 234 230 224 207 207 200
219 266 232 245 231 248 192 214 237 237 249 211 247 243 2 127 178 102 102 171 178 173 170 169 164 166 170 190 200 213 226 222 208 220 229 231 232 244 235 234 227 216 224 225
200 234 260 214 248 248 249 111 104 301 245 172 254 300 294 226 264 70 143 151 157 173 175 176 175 179 185 190 199 215 224 220 230 246 239 229 231 248 250 236 235 227 225 216
197 213 221 228 238 255 111 123 164 220 226 22 356 1 330 304 5 130 148 157 167 171 175 172 178 189 197 198 207 221 218 227 241 252 254 245 237 245 244 236 232 224 216 214
203 205 216 233 237 234 143 141 238 22 43 25 21 22 31 73 96 128 140 152 143 140 147 154 169 183 189 195 212 205 227 230 246 255 252 234 232 238 238 235 230 217 219 208
242 264 252 232 229 97 147 24 27 347 326 360 7 19 93 101 106 139 153 145 128 130 142 162 182 194 196 201 205 200 200 214 225 231 199 198 223 231 232 227 217 208 209 221
185 262 252 248 164 154 126 99 14 356 335 326 342 56 110 101 137 141 139 143 186 182 170 166 192 199 199 192 192 186 172 168 141 128 134 175 202 216 226 217 202 208 216 218
27 158 216 229 120 238 149 52 37 33 50 59 118 140 142 144 147 152 166 173 189 187 235 193 187 183 177 172 168 146 135 128 131 134 144 144 139 146 170 180 179 198 185 172
344 26 257 25 31 328 58 25 31 41 56 112 130 125 147 157 153 158 158 159 166 176 182 168 183 169 161 150 144 133 130 132 142 141 140 130 122 122 125 134 147 148 163 168
Height
1520 1516 1514 1511 1513 1514 1516 1517 1517 1509 1510 1510 1505 1505 1501 1506 1508 1511 1516 1521 1524 1528 1531 1532 1533 1534 1535 1536 1538 1541 1543 1543 1544 1548 1553 1553 1554 1553 1552 1553 1551 1550 1549 1549
1519 1515 1510 1517 1518 1518 1516 1517 1513 1508 1511 1511 1503 1503 1497 1504 1506 1509 1512 1517 1522 1524 1528 1529 1529 1530 1532 1534 1537 1540 1542 1544 1545 1547 1550 1551 1551 1551 1550 1548 1546 1545 1544 1542
1511 1511 1516 1516 1517 1518 1514 1515 1513 1515 1509 1504 1506 1502 1497 1498 1505 1508 1510 1512 1515 1518 1524 1526 1527 1528 1531 1534 1537 1538 1541 1542 1544 1546 1547 1548 1547 1546 1547 1546 1544 1542 1538 1537
1510 1508 1515 1514 1514 1513 1513 1510 1513 1512 1512 1512 1504 1516 1495 1492 1496 1499 1504 1507 1511 1516 1521 1524 1525 1526 1530 1534 1537 1537 1541 1542 1542 1544 1546 1546 1546 1545 1542 1541 1540 1536 1534 1532
1507 1510 1514 1516 1512 1511 1507 1512 1512 1511 1508 1509 1503 1512 1490 1491 1493 1493 1498 1503 1508 1513 1519 1522 1524 1527 1529 1531 1535 1537 1539 1541 1542 1543 1543 1544 1543 1543 1542 1539 1535 1533 1532 1529
1503 1509 1508 1505 1508 1509 1511 1511 1510 1507 1503 1518 1501 1510 1494 1489 1491 1493 1498 1502 1505 1511 1517 1521 1524 1526 1527 1531 1534 1536 1538 1540 1541 1541 1540 1540 1540 1540 1540 1537 1536 1534 1532 1529
1504 1503 1504 1507 1508 1509 1511 1511 1519 1520 1517 1516 1505 1510 1496 1486 1490 1495 1496 1501 1504 1509 1514 1518 1521 1523 1525 1528 1533 1536 1537 1538 1540 1540 1539 1539 1539 1540 1539 1538 1536 1532 1531 1528
1507 1510 1499 1501 1502 1502 1506 1505 1512 1529 1518 1509 1508 1512 1492 1487 1491 1494 1498 1500 1503 1507 1511 1515 1519 1522 1524 1528 1531 1533 1535 1536 1538 1538 1537 1538 1539 1539 1540 1537 1535 1534 1529 1528
1502 1504 1498 1500 1499 1501 1504 1514 1495 1505 1502 1513 1496 1490 1482 1483 1487 1489 1495 1499 1502 1506 1510 1513 1516 1519 1522 1525 1530 1531 1533 1534 1536 1536 1537 1537 1538 1539 1538 1536 1536 1533 1530 1527
1493 1507 1494 1497 1499 1501 1501 1492 1510 1503 1523 1527 1499 1503 1494 1486 1482 1483 1495 1498 1502 1505 1508 1512 1515 1517 1520 1522 1525 1528 1530 1533 1535 1536 1537 1538 1539 1538 1538 1537 1535 1532 1530 1527
1491 1499 1499 1497 1497 1494 1503 1500 1497 1491 1496 1506 1508 1493 1476 1481 1479 1483 1492 1497 1502 1504 1508 1511 1514 1517 1520 1521 1524 1526 1529 1532 1535 1536 1537 1538 1539 1540 1538 1537 1535 1533 1530 1527
1491 1494 1501 1493 1485 1489 1488 1489 1489 1500 1507 1495 1500 1492 1471 1477 1481 1486 1490 1496 1501 1504 1507 1511 1515 1519 1521 1522 1525 1528 1529 1533 1535 1535 1536 1537 1538 1539 1536 1535 1535 1534 1532 1529
1494 1494 1502 1499 1493 1491 1492 1488 1490 1490 1496 1498 1503 1488 1472 1477 1480 1486 1488 1496 1501 1504 1507 1511 1515 1519 1521 1523 1528 1529 1530 1533 1534 1535 1536 1539 1539 1538 1536 1535 1534 1534 1534 1531
1493 1489 1491 1488 1489 1474 1490 1485 1485 1489 1495 1486 1486 1482 1474 1473 1476 1483 1487 1495 1499 1503 1507 1512 1516 1519 1521 1523 1528 1530 1530 1531 1535 1537 1537 1538 1539 1537 1537 1535 1535 1535 1535 1533
1491 1494 1486 1481 1481 1481 1480 1479 1482 1489 1484 1490 1475 1480 1472 1473 1480 1482 1488 1496 1500 1501 1505 1509 1513 1517 1521 1525 1527 1528 1529 1532 1535 1536 1537 1538 1538 1538 1537 1536 1536 1535 1537 1535
1492 1492 1487 1486 1480 1481 1484 1478 1477 1478 1477 1480 1477 1479 1475 1480 1482 1483 1485 1491 1495 1500 1503 1506 1511 1515 1518 1522 1525 1526 1529 1531 1533 1533 1536 1538 1538 1537 1537 1536 1536 1536 1537 1536
1492 1486 1491 1490 1479 1481 1490 1476 1473 1473 1473 1476 1480 1472 1476 1479 1483 1485 1486 1488 1492 1494 1500 1504 1508 1512 1516 1519 1522 1525 1527 1529 1532 1534 1536 1537 1537 1537 1536 1536 1536 1536 1537 1537
1497 1493 1486 1487 1484 1506 1471 1471 1471 1471 1470 1470 1472 1474 1480 1483 1486 1487 1487 1488 1491 1494 1497 1503 1507 1511 1514 1517 1518 1520 1524 1526 1529 1531 1534 1535 1535 1533 1534 1535 1536 1536 1536 1536
1498 1493 1488 1493 1489 1478 1472 1474 1475 1475 1473 1471 1474 1477 1479 1483 1485 1487 1488 1490 1492 1495 1498 1502 1503 1505 1509 1512 1515 1517 1519 1521 1524 1528 1529 1531 1532 1530 1532 1534 1535 1536 1536 1537
1492 1495 1493 1485 1494 1494 1469 1474 1480 1481 1480 1471 1477 1476 1477 1480 1475 1478 1487 1489 1491 1493 1495 1496 1498 1502 1505 1508 1512 1514 1515 1516 1518 1520 1522 1525 1527 1527 1529 1532 1533 1534 1535 1536
1489 1490 1491 1487 1489 1474 1471 1478 1481 1489 1481 1479 1480 1480 1481 1481 1486 1488 1489 1491 1492 1493 1495 1497 1500 1503 1505 1508 1509 1512 1513 1513 1515 1516 1518 1519 1521 1523 1526 1529 1530 1532 1533 1534
1478 1484 1481 1481 1484 1492 1475 1479 1481 1482 1482 1483 1484 1484 1485 1487 1487 1489 1491 1493 1494 1495 1497 1500 1501 1503 1506 1508 1509 1507 1511 1512 1513 1514 1515 1516 1518 1521 1523 1525 1527 1529 1531 1532
1482 1469 1469 1470 1470 1476 1480 1480 1483 1485 1486 1486 1487 1487 1488 1487 1489 1490 1492 1495 1498 1498 1498 1498 1500 1503 1505 1507 1507 1506 1505 1509 1511 1513 1514 1516 1517 1518 1520 1521 1523 1525 1528 1529
1477 1480 1474 1477 1475 1477 1480 1483 1484 1485 1485 1486 1487 1488 1490 1491 1492 1493 1494 1497 1497 1499 1500 1501 1503 1504 1505 1506 1507 1507 1505 1509 1511 1512 1514 1515 1516 1518 1519 1520 1522 1524 1527 1529
1474 1480 1474 1473 1477 1479 1481 1484 1485 1485 1485 1485 1486 1487 1490 1492 1494 1494 1496 1498 1499 1500 1500 1502 1503 1504 1505 1506 1508 1507 1507 1509 1511 1513 1515 1515 1516 1518 1519 1521 1522 1524 1526 1528
1479 1481 1479 1468 1483 1482 1485 1486 1486 1487 1487 1487 1488 1490 1491 1493 1494 1496 1498 1499 1500 1501 1501 1502 1503 1505 1506 1508 1509 1509 1509 1511 1513 1513 1516 1517 1517 1518 1521 1522 1524 1525 1527 1529